Location: Unspecified
(38.9820°N, 94.4650°W)
Time: 21:48:07
(UTC-06:00)

CZ-3 Stage 3 - Visible Passes

Search period start: 24 January 2015 00:00
Search period end: 03 February 2015 00:00
Orbit: 436 x 34794 km, 31.1° (Epoch: 22 January)

Date Brightness Start Highest point End Pass type
(mag) Time Alt. Az. Time Alt. Az. Time Alt. Az.
24 Jan 8.6 20:18:06 10° WSW 03:58:00 10° WNW 03:58:00 10° WNW visible
25 Jan 7.9 15:50:41 10° SSW 00:31:34 60° WSW 00:31:34 60° WSW visible
26 Jan 7.8 12:39:42 10° SE 14:29:24 32° ESE 21:05:10 50° E visible
27 Jan 8.5 20:15:43 10° WSW 03:55:11 - WNW 03:55:11 - WNW visible
28 Jan 7.8 15:45:29 10° SSW 00:28:42 60° WSW 00:28:42 60° WSW visible
29 Jan 7.7 12:30:15 10° SE 14:26:51 34° ESE 21:02:15 48° E visible
30 Jan 8.4 20:13:33 10° WSW 03:52:13 - WNW 03:52:13 - WNW visible
31 Jan 7.7 15:40:19 10° SSW 00:25:41 60° WSW 00:25:41 60° WSW visible
01 Feb 7.6 12:21:24 10° SE 14:23:38 36° ESE 20:59:12 47° E visible
